Regional Weather Roundup
Issued by NWS New Orleans/Baton Rouge, LA

Home | Current Version | Previous Version | Text Only | Print | Product List | Glossary On
Versions: 1 2 3 4 5 6 7 8 9 10 11 12 13 14 15 16 17 18 19 20 21 22 23 24 25 26 27 28 29 30 31 32 33 34 35 36 37 38 39 40 41 42 43 44 45 46 47 48 49 50
518
ASUS44 KLIX 201201
RWRLIX
NEW ORLEANS REGIONAL WEATHER ROUNDUP
NATIONAL WEATHER SERVICE NEW ORLEANS LA
700 AM CDT MON OCT 20 2014

NOTE: "FAIR" INDICATES FEW OR NO CLOUDS BELOW 12,000 FEET WITH NO
      SIGNIFICANT WEATHER AND/OR OBSTRUCTIONS TO VISIBILITY.
      SKY/WX - SKY CONDITION AND SIGNIFICANT WEATHER.
      TMP - AIR TEMPERATURE.     DP    - DEWPOINT TEMPERATURE.
      RH  - RELATIVE HUMIDITY.   PRES  - PRESSURE.
      HI  - HEAT INDEX.          WCI   - WIND CHILL INDEX.

*  THESE STATIONS ARE NOT NWS OR FAA STATIONS AND ARE NOT UNDER
   NWS QUALITY CONTROL.

LAZ038-040-048-061>063-065>067-069-201300-
SOUTHEAST LOUISIANA

CITY           SKY/WX    TMP DP  RH WIND       PRES   REMARKS
N.O. AUDUBON     N/A     61  58  88 MISG        N/A
6HR MIN TEMP:  61; 6HR MAX TEMP:  62;

N.O. INTL ARPT PTCLDY    59  56  89 CALM      30.03S
6HR MIN TEMP:  58; 6HR MAX TEMP:  64;

N.O. LAKEFRONT CLEAR     68  60  75 NE9       30.04R
6HR MIN TEMP:  65; 6HR MAX TEMP:  69;

N.O. DOWNTOWN*   N/A     64  54  68 NE7       30.04R
6HR MIN TEMP:  64; 6HR MAX TEMP:  68;

SLIDELL        CLEAR     49  46  90 CALM      30.04S
6HR MIN TEMP:  49; 6HR MAX TEMP:  53;

BATON ROUGE    CLEAR     52  49  89 NE5       30.05R
6HR MIN TEMP:  51; 6HR MAX TEMP:  56;

BOOTHVILLE     CLEAR     70  63  78 CALM      30.03R
6HR MIN TEMP:  69; 6HR MAX TEMP:  71;

BELLE CHASSE   PTCLDY    56  52  86 N3        30.03R FOG
6HR MIN TEMP:  54; 6HR MAX TEMP:  58;

BOGALUSA*        N/A     47  44  89 CALM      30.07S
6HR MIN TEMP:  46; 6HR MAX TEMP:  51;

NEW ROADS*       N/A     51  50  97 CALM      30.06R
6HR MIN TEMP:  51; 6HR MAX TEMP:  55;

GONZALES*        N/A     55  55 100 CALM      30.04S
6HR MIN TEMP:  53; 6HR MAX TEMP:  57;

HAMMOND*       NOT AVBL
HOUMA*         CLEAR     57  57 100 NE7       30.02S
PORT FOURCHON* SUNNY     70  63  78 NE7       30.05R

$$

MSZ070-080>082-201300-
SOUTHERN MISSISSIPPI

CITY           SKY/WX    TMP DP  RH WIND       PRES   REMARKS
MCCOMB         CLEAR     50  46  86 CALM      30.07R
6HR MIN TEMP:  48; 6HR MAX TEMP:  53;

GULFPORT       CLEAR     53  47  79 CALM      30.03S
6HR MIN TEMP:  51; 6HR MAX TEMP:  56;

BILOXI         CLEAR     53  48  83 NE6       30.04S
6HR MIN TEMP:  52; 6HR MAX TEMP:  59;

PASCAGOULA     CLEAR     45  44  97 CALM      30.05S
6HR MIN TEMP:  45; 6HR MAX TEMP:  49;

STENNIS ARPT*  CLEAR     52  46  82 CALM      30.04

$$

COASTAL OBSERVATIONS
LAKE AND NEARSHORE STATIONS

STATION/POSITION TIME  TEMP    WIND        PRES    WAVE
                       AIR SEA DIR/SP/G            HT/PER
                 (UTC) (F)     (DEG/KT/KT) (MB)    (FT/S)
PASCAGOULA       1100   55     360/  7/  8 1016.7
WAVELAND YACHT   1100   59      30/  4/  5 1016.4
GRAND ISLE       1100   72 78   70/ 10/ 11 1016.8
SOUTHWEST PASS   1100   74 84              1016.4
NEW CANAL        1100   63 72   80/  2/  3 1017.2
SHELL BEACH      1100   69 69   50/ 10/ 11 1016.5

OFFSHORE STATIONS

STATION/POSITION TIME  TEMP    WIND        PRES    WAVE
                       AIR SEA DIR/SP/G            HT/PER
                 (UTC) (F)     (DEG/KT/KT) (MB)    (FT/S)
64 S DAUPHIN ISL 1122   74 79  100/  8/ 10 1017.0    2/ 5

$$




USA.gov is the U.S. government's official web portal to all federal, state and local government web resources and services.